sat.trackr.live / text

‹ back to catalog

STARLINK-32856

NORAD 62819 · 2025-018P

PAYLOAD ACTIVE UNKNOWN

§ Identity

Operator
Country
US
Launch date
2025-01-24
Launch site
AFWTR
Launch vehicle
Mass (kg)
RCS (m²)

Purposes: comms

External: N2YO · Heavens-Above · Gunter

§ Orbital elements

Epoch: 2026-05-24T21:06:34.049664Z

Period
94.10 min
Inclination
53.1597°
Eccentricity
0.0000929
Mean motion
15.30210379 rev/d
Perigee alt
474.5 km
Apogee alt
475.8 km
Semi-major
6,853.3 km
B*
4.9203e-4
RAAN
315.6866°
Arg perigee
76.6654°
Mean anomaly
283.4450°
Rev number
7,484

§ Raw data

STARLINK-328561 62819U 25018P   26144.87956076  .00014246  00000+0  49203-3 0  99942 62819  53.1597 315.6866 0000929  76.6654 283.4450 15.30210379 74847

JSON: /api/v1/satellites/62819 · /tle

For live sub-satellite position, see the globe view (requires WebGL).

§ Visibility from observer

Set your observer location to see the next 7 days of passes ≥ 10°. The values pass through the URL so the page stays shareable.

No JS? Fill the form by hand. The geolocation button needs JavaScript.